Date String (YYYY-MM-DD hh:mm:ss) UTC,Instrument flags,Ambient pressure (hPa),Sample flow (lpm),Bypass flow (lpm),Sample temperature (°C),Ambient temperature (°C),ASC tube jacket temperature (°C),LED temperature (°C),Box temperature (°C),Sample RH (%),Span deviation,Mass concentration (μg/m³),Mass concentration (μg/m³),Mass concentration (μg/m³)
DateTimeUTC,F1_M11,P_M11,Q1_M11,Q2_M11,T1_M11,T2_M11,T3_M11,T4_M11,T5_M11,U1_M11,ZSPAN_M11,X0_M11,X2_M11,X1_M11
2023-02-01 11:00:00,,0824.3,4.99,0.00,22.6,22.6,00.0,31.3,24.5,06.9,-002.0,0010.68,0005.92,0005.35
2023-02-01 11:01:00,,0824.3,5.00,0.00,22.5,22.1,00.0,31.3,24.4,06.8,-002.1,0010.61,0005.85,0005.28
2023-02-01 11:02:00,,0824.3,5.01,0.00,22.5,21.7,00.0,31.3,24.3,06.8,-001.9,0010.52,0005.81,0005.20
2023-02-01 11:03:00,,0824.3,5.00,0.00,22.5,21.4,00.0,31.3,24.2,06.8,-001.5,0011.10,0005.73,0005.12
2023-02-01 11:04:00,,0824.3,5.04,0.00,22.5,21.0,00.0,31.3,24.1,06.8,-001.5,0011.14,0005.64,0005.05
2023-02-01 11:05:00,,0824.3,5.01,0.00,22.4,20.6,00.0,31.3,24.0,06.8,-001.9,0010.99,0005.54,0004.97
2023-02-01 11:06:00,,0824.3,4.99,0.00,22.3,20.3,00.0,31.3,23.8,06.8,-002.7,0010.77,0005.33,0004.78
2023-02-01 11:07:00,,0824.4,4.97,0.00,22.2,20.1,00.0,31.3,23.7,06.8,-001.5,0010.55,0005.11,0004.56
2023-02-01 11:08:00,,0824.3,5.02,0.00,22.2,19.9,00.0,31.2,23.6,06.8,0000.0,0010.06,0004.75,0004.25
2023-02-01 11:09:00,,0824.3,4.99,0.00,22.1,20.2,00.0,31.2,23.7,06.8,0000.0,0009.53,0004.36,0003.92
2023-02-01 11:10:00,,0824.4,5.02,0.00,22.2,21.5,00.0,31.1,24.0,06.8,0000.0,0008.73,0004.12,0003.66
2023-02-01 11:11:00,,0824.4,4.99,0.00,22.3,22.6,00.0,31.1,24.3,06.8,0000.0,0008.37,0003.98,0003.51
2023-02-01 11:12:00,,0824.4,4.99,0.00,22.4,22.6,00.0,31.2,24.4,06.7,0000.0,0008.22,0003.90,0003.43
2023-02-01 11:13:00,,0824.3,5.00,0.00,22.4,22.0,00.0,31.2,24.2,06.7,0000.0,0008.43,0003.81,0003.39
2023-02-01 11:14:00,,0824.3,5.02,0.00,22.4,21.4,00.0,31.2,24.1,06.8,0000.0,0007.72,0003.85,0003.43
2023-02-01 11:15:00,,0824.3,4.99,0.00,22.3,21.1,00.0,31.2,24.0,06.8,0000.0,0007.75,0003.94,0003.50
2023-02-01 11:16:00,,0824.3,5.01,0.00,22.3,20.9,00.0,31.2,24.0,06.8,0000.0,0007.86,0004.01,0003.55
2023-02-01 11:17:00,,0824.3,5.00,0.00,22.3,20.8,00.0,31.2,23.9,06.8,0000.0,0007.82,0004.02,0003.56
2023-02-01 11:18:00,,0824.4,5.00,0.00,22.2,20.7,00.0,31.2,23.9,06.8,0000.0,0007.65,0003.89,0003.46
2023-02-01 11:19:00,,0824.4,4.98,0.00,22.2,20.6,00.0,31.2,23.9,06.8,0000.0,0007.95,0003.88,0003.45
2023-02-01 11:20:00,,0824.4,4.99,0.00,22.2,20.5,00.0,31.2,23.9,06.8,0000.0,0008.40,0003.93,0003.48
2023-02-01 11:21:00,,0824.4,5.00,0.00,22.2,20.4,00.0,31.1,23.8,06.8,0000.0,0008.38,0003.93,0003.50
2023-02-01 11:22:00,,0824.4,5.00,0.00,22.1,20.5,00.0,31.1,23.8,06.8,0000.0,0008.49,0004.02,0003.59
2023-02-01 11:23:00,,0824.5,5.02,0.00,22.2,21.5,00.0,31.1,24.0,06.9,0000.0,0008.65,0004.19,0003.76
2023-02-01 11:24:00,,0824.5,5.02,0.00,22.3,22.5,00.0,31.1,24.3,06.8,0000.0,0008.49,0004.27,0003.86
2023-02-01 11:25:00,,0824.7,4.99,0.00,22.4,23.0,00.0,31.1,24.5,06.8,0000.0,0008.84,0004.30,0003.89
2023-02-01 11:26:00,,0824.6,5.00,0.00,22.5,22.5,00.0,31.2,24.4,06.8,0000.0,0008.76,0004.30,0003.91
2023-02-01 11:27:00,,0824.6,5.00,0.00,22.5,22.0,00.0,31.2,24.3,06.8,0000.0,0008.98,0004.36,0003.99
2023-02-01 11:28:00,,0824.7,4.96,0.00,22.4,21.7,00.0,31.2,24.2,06.8,0000.0,0009.29,0004.54,0004.11
2023-02-01 11:29:00,,0824.7,4.98,0.00,22.4,21.4,00.0,31.2,24.2,06.8,0000.0,0009.55,0004.79,0004.33
2023-02-01 11:30:00,,0824.6,5.01,0.00,22.4,21.2,00.0,31.2,24.1,06.9,0000.0,0010.07,0004.98,0004.53
2023-02-01 11:31:00,,0824.6,5.02,0.00,22.4,21.0,00.0,31.2,24.1,06.8,0000.0,0010.00,0005.10,0004.64
2023-02-01 11:32:00,,0824.6,5.03,0.00,22.4,20.9,00.0,31.2,24.1,06.9,0000.0,0010.16,0005.21,0004.73
2023-02-01 11:33:00,,0824.6,4.99,0.00,22.3,20.8,00.0,31.2,24.0,06.9,0000.0,0010.30,0005.20,0004.71
2023-02-01 11:34:00,,0824.7,5.01,0.00,22.3,20.7,00.0,31.2,24.0,06.9,0000.0,0010.54,0005.13,0004.65
2023-02-01 11:35:00,,0824.6,4.99,0.00,22.3,20.7,00.0,31.2,24.0,06.9,0000.0,0010.34,0005.15,0004.63
2023-02-01 11:36:00,,0824.7,5.01,0.00,22.3,20.6,00.0,31.2,24.0,06.9,0000.0,0009.99,0005.16,0004.62
2023-02-01 11:37:00,,0824.7,4.99,0.00,22.3,20.6,00.0,31.2,24.0,06.9,0000.0,0010.31,0005.12,0004.58
2023-02-01 11:38:00,,0824.6,5.00,0.00,22.3,21.1,00.0,31.2,24.0,06.9,0000.0,0010.07,0005.05,0004.50
2023-02-01 11:39:00,,0824.7,5.01,0.00,22.4,22.2,00.0,31.1,24.3,06.9,0000.0,0009.83,0004.91,0004.41
2023-02-01 11:40:00,,0824.7,5.00,0.00,22.5,23.0,00.0,31.2,24.5,06.8,0000.0,0009.83,0004.80,0004.28
2023-02-01 11:41:00,,0824.7,5.00,0.00,22.6,22.8,00.0,31.2,24.6,06.7,0000.0,0009.16,0004.77,0004.22
2023-02-01 11:42:00,,0824.7,5.01,0.00,22.6,22.3,00.0,31.3,24.4,06.8,0000.0,0009.11,0004.70,0004.17
2023-02-01 11:43:00,,0824.9,5.04,0.00,22.6,21.9,00.0,31.3,24.3,06.7,0000.0,0008.96,0004.54,0004.02
2023-02-01 11:44:00,,0824.6,4.97,0.00,22.5,21.6,00.0,31.3,24.3,06.7,0000.0,0008.67,0004.44,0003.93
2023-02-01 11:45:00,,0824.6,5.03,0.00,22.5,21.4,00.0,31.3,24.2,06.8,0000.0,0008.27,0004.35,0003.84
2023-02-01 11:46:00,,0824.9,4.96,0.00,22.5,21.2,00.0,31.3,24.2,06.7,0000.0,0008.15,0004.27,0003.77
2023-02-01 11:47:00,,0824.7,5.04,0.00,22.5,21.1,00.0,31.3,24.2,06.8,0000.0,0008.12,0004.21,0003.70
2023-02-01 11:48:00,,0824.7,4.97,0.00,22.4,21.0,00.0,31.3,24.1,06.8,0000.0,0007.87,0004.16,0003.63
2023-02-01 11:49:00,,0824.8,5.04,0.00,22.4,20.8,00.0,31.3,24.1,06.8,0000.0,0008.65,0004.07,0003.56
2023-02-01 11:50:00,,0824.7,4.95,0.00,22.4,20.8,00.0,31.3,24.1,06.8,0000.0,0008.54,0003.99,0003.49
2023-02-01 11:51:00,,0824.6,5.06,0.00,22.4,20.7,00.0,31.3,24.1,06.8,0000.0,0008.28,0003.87,0003.39
2023-02-01 11:52:00,,0824.7,5.01,0.00,22.3,20.7,00.0,31.3,24.0,06.8,0000.0,0008.23,0003.68,0003.22
2023-02-01 11:53:00,,0824.6,5.02,0.00,22.3,20.7,00.0,31.3,24.0,06.8,0000.0,0008.20,0003.56,0003.08
2023-02-01 11:54:00,,0824.6,5.02,0.00,22.4,21.6,00.0,31.2,24.2,06.8,0000.0,0008.08,0003.55,0003.08
2023-02-01 11:55:00,,0824.6,5.01,0.00,22.5,22.5,00.0,31.2,24.5,06.7,0000.0,0008.05,0003.55,0003.08
2023-02-01 11:56:00,,0824.7,4.97,0.00,22.6,22.9,00.0,31.3,24.6,06.7,0000.0,0008.02,0003.52,0003.07
2023-02-01 11:57:00,,0824.7,5.00,0.00,22.6,22.4,00.0,31.3,24.5,06.7,0000.0,0008.01,0003.49,0003.05
2023-02-01 11:58:00,,0824.7,5.01,0.00,22.6,21.8,00.0,31.3,24.3,06.7,0000.0,0008.01,0003.50,0003.09
2023-02-01 11:59:00,,0824.8,4.99,0.00,22.5,21.4,00.0,31.3,24.2,06.8,0000.0,0007.86,0003.53,0003.15
